Theta_e
353 352 352 352 351 351 350 349 349 349 350 350 350 349 348 347 346 345 344 343 342 342 343 345 346 347 348 348 348 346 347 347 347 348 348 348 348 348 348 346 346 345 345 346 349 348 348 350 352 352 352 351 351 351 351 351 350 349 350 350 350 351 352 352 350 349 350 351 350 350 349 348 347 345 345 344 343 343 341 340 339 338 337 335 334
352 351 351 351 352 352 351 352 351 351 351 352 351 349 348 347 347 346 345 343 344 344 343 344 345 346 347 346 347 346 345 346 346 346 347 347 347 348 347 347 347 347 348 348 349 348 349 352 354 353 353 352 352 352 351 350 349 349 349 349 350 350 350 352 351 350 350 351 351 350 349 348 345 345 344 342 342 342 341 340 338 337 336 334 334
352 351 351 350 351 352 352 352 352 351 351 351 351 349 348 347 345 345 344 344 345 346 345 344 344 345 345 345 346 346 345 345 345 345 346 346 347 347 347 347 347 348 348 348 347 348 348 349 350 350 349 348 348 350 351 351 350 349 349 349 350 350 350 352 352 349 349 350 350 349 349 347 346 344 343 341 341 341 340 339 338 337 335 333 334
351 351 351 351 352 352 351 351 352 352 351 350 351 350 348 348 346 346 346 345 346 345 344 345 345 345 344 344 345 346 346 346 345 345 346 345 346 346 346 347 348 349 350 349 350 349 347 344 345 345 344 343 343 346 350 353 351 350 350 350 350 350 350 351 351 349 349 350 350 349 349 347 345 344 343 341 340 338 339 340 338 335 334 333 335
350 350 351 351 353 352 351 350 350 351 351 350 350 350 349 348 348 348 347 346 346 346 345 345 345 346 345 345 345 345 346 347 346 345 345 346 346 346 346 347 349 349 350 352 353 352 349 347 345 344 343 343 344 345 348 351 352 352 352 350 349 350 350 349 350 349 349 349 349 349 349 347 346 344 343 342 339 337 338 339 337 335 333 333 332
349 349 350 352 354 353 351 350 350 350 351 350 350 350 348 347 348 348 348 347 347 346 346 345 345 346 346 346 345 345 346 346 346 346 346 346 347 346 347 347 349 349 349 351 353 354 352 349 345 343 343 343 344 345 347 347 348 349 350 349 349 350 350 350 350 349 347 348 348 349 348 347 346 344 341 340 340 338 338 337 335 333 332 330 328
345 345 347 349 352 354 353 351 351 351 351 350 350 349 349 348 347 347 347 348 348 346 346 345 345 345 346 346 345 345 346 346 346 346 347 347 347 347 348 348 349 349 349 351 353 353 351 349 345 344 344 344 345 345 345 345 344 346 348 349 350 351 351 350 349 348 348 348 349 349 348 347 346 344 341 340 339 338 338 337 334 331 330 328 327
343 344 345 345 347 350 351 351 352 353 352 351 350 350 349 349 348 348 347 348 347 347 347 346 346 345 346 346 345 345 346 346 346 348 347 347 347 347 348 348 349 350 349 351 352 351 350 350 348 346 345 346 347 346 345 343 344 346 347 349 351 352 352 351 349 350 350 349 349 348 347 347 345 343 341 339 338 337 337 337 335 332 330 328 327
343 343 343 343 343 345 346 347 350 352 352 351 349 349 349 349 349 349 348 347 347 348 348 346 346 346 346 345 345 345 346 345 347 348 348 347 347 348 349 348 349 349 349 350 351 350 351 350 349 347 347 349 349 349 346 342 342 345 347 349 352 353 353 350 349 351 350 349 349 347 347 346 344 343 341 340 339 338 336 335 334 331 330 328 325
344 344 344 344 343 343 344 344 345 348 348 348 346 346 346 348 348 349 350 349 348 348 348 347 346 346 345 345 346 346 346 346 347 347 348 348 348 349 350 350 349 349 349 349 349 349 350 350 349 348 348 349 350 351 348 344 343 345 347 349 351 352 351 349 348 349 349 348 349 347 346 344 343 343 342 341 340 338 336 335 332 330 329 328 326
345 344 345 346 345 343 344 344 344 345 345 344 345 344 344 345 346 347 348 349 349 348 348 348 347 347 347 346 346 346 346 346 347 347 348 348 349 350 351 351 350 350 349 349 349 348 348 349 350 349 349 348 349 350 348 345 344 344 346 347 349 350 350 350 348 348 347 348 349 347 346 344 342 342 341 341 339 336 336 335 332 332 332 330 329
349 349 350 350 350 348 348 348 348 348 347 346 345 346 347 348 348 347 347 348 348 349 349 349 349 348 348 348 347 346 346 346 347 347 348 348 349 349 349 350 350 351 350 350 349 348 347 348 349 349 348 347 347 347 346 344 344 345 345 345 347 349 349 349 349 348 347 348 348 347 346 343 341 341 340 340 339 337 336 334 333 333 333 331 329
355 355 354 354 354 354 352 352 352 352 351 350 348 349 350 351 352 350 348 347 346 346 348 349 350 350 348 349 349 348 346 346 347 347 347 348 349 349 349 349 348 349 349 349 349 349 348 349 349 349 348 347 346 346 345 344 344 345 345 345 347 348 348 349 350 348 347 348 348 347 345 342 341 340 340 340 339 338 336 334 333 333 333 331 328
356 355 355 355 355 354 353 354 354 354 354 354 352 351 351 351 351 349 349 348 347 345 344 344 346 348 349 350 352 351 350 348 348 347 347 347 347 349 349 348 349 348 349 348 348 348 347 347 348 349 348 348 347 345 345 344 343 343 344 346 348 349 348 349 350 349 349 348 347 347 345 342 341 340 339 339 339 338 337 336 335 333 334 333 327
355 354 354 353 352 352 352 351 352 352 352 353 352 352 352 352 350 350 350 350 349 348 346 344 343 344 346 348 348 348 348 349 349 348 348 348 348 348 348 348 349 349 349 349 348 347 346 344 344 345 345 346 346 345 344 344 344 344 345 347 348 349 348 348 348 349 348 347 346 345 344 343 342 341 339 339 339 338 337 336 335 334 334 332 326
354 353 352 351 350 351 350 350 350 350 350 351 351 350 350 350 349 350 350 350 349 349 349 348 346 344 345 346 345 345 344 346 346 347 348 348 348 348 348 348 349 349 349 349 349 348 346 344 343 343 342 341 343 344 344 344 345 345 346 348 349 349 348 348 347 348 348 346 344 343 343 344 343 340 339 338 338 338 337 336 335 334 333 329 325
355 354 353 352 351 351 351 350 349 349 348 348 348 346 347 349 349 350 350 349 350 350 350 350 348 347 346 346 346 346 344 345 346 346 346 347 347 348 348 348 348 349 349 348 349 349 347 345 344 344 342 341 341 343 344 345 345 346 348 348 348 348 348 348 347 347 347 345 342 341 342 343 342 341 340 339 338 338 336 335 334 331 329 328 324
354 354 353 353 352 353 352 351 350 349 348 347 347 345 347 349 350 350 349 349 350 350 349 349 349 348 348 347 347 347 346 346 347 347 348 347 347 347 348 348 347 347 347 347 348 348 348 347 346 345 343 342 341 342 344 345 346 346 347 348 347 347 348 347 347 346 345 343 341 342 342 343 342 340 339 339 338 337 336 335 332 329 327 326 319
353 353 352 352 351 351 351 351 351 351 350 350 349 348 348 349 350 349 348 349 350 349 349 348 348 349 349 349 350 349 349 349 348 349 350 348 347 346 346 347 347 347 347 347 347 348 348 348 348 345 343 342 342 341 343 346 347 347 347 347 347 347 348 348 347 346 344 342 341 342 342 342 341 339 338 337 336 335 334 333 331 327 323 319 311
352 351 350 350 349 348 348 348 347 347 349 350 350 350 350 350 350 350 349 349 349 349 348 348 348 348 348 349 350 349 350 349 348 349 350 350 349 348 347 347 348 348 348 348 347 348 348 348 348 345 341 342 343 341 342 345 347 348 347 347 347 348 348 347 347 345 344 342 341 342 342 341 340 338 337 336 334 333 333 330 326 321 315 310 306
352 350 349 348 346 346 346 345 343 344 345 347 347 347 347 347 348 348 348 348 349 349 349 349 348 348 348 348 349 348 348 349 349 349 349 350 350 350 349 349 349 349 349 348 348 348 347 347 348 347 344 344 344 342 341 344 347 348 347 347 348 348 348 347 345 343 342 341 341 341 340 340 339 338 337 336 334 333 330 323 318 314 309 306 305
350 348 347 346 345 345 345 344 343 343 343 342 342 343 343 343 343 343 344 344 346 346 347 348 348 348 347 348 348 347 348 348 349 349 349 349 350 350 350 349 350 351 351 350 349 348 346 346 347 346 346 345 345 344 343 343 345 347 348 348 349 349 348 346 343 342 341 340 340 340 339 338 338 337 336 336 333 328 323 317 313 309 306 306 306
347 346 346 345 345 345 344 342 342 342 341 341 340 339 340 340 340 340 341 342 342 343 343 344 345 346 347 347 347 347 347 347 348 348 348 349 349 349 350 349 350 351 351 350 350 349 348 347 347 347 347 346 346 347 345 344 345 347 348 349 350 349 347 345 342 341 340 339 338 339 338 337 337 336 334 330 325 320 316 312 309 306 304 306 305
346 346 346 345 345 345 344 343 343 342 342 341 339 338 339 340 339 339 339 340 340 341 341 342 342 343 344 345 346 346 346 347 347 348 348 349 349 349 349 349 349 350 350 350 350 350 350 349 348 348 349 349 349 349 348 347 346 347 348 349 349 348 347 344 342 341 340 339 338 337 337 336 334 331 326 321 317 315 312 308 306 304 304 305 305
345 346 346 345 344 344 344 343 343 342 341 340 339 338 340 341 340 338 338 339 340 340 341 342 341 342 342 343 343 344 345 346 347 348 348 349 349 349 348 348 348 349 349 349 349 350 351 350 348 348 349 350 350 350 349 348 348 349 349 350 348 347 344 342 340 339 337 336 335 335 334 331 327 322 318 316 314 312 308 306 304 304 304 303 303
345 345 345 345 344 343 343 343 343 342 341 340 341 340 339 340 340 338 338 338 339 340 340 341 341 341 342 342 341 341 342 343 345 345 346 347 348 347 347 347 348 348 349 349 349 349 349 349 349 348 349 350 350 350 349 350 349 348 346 346 346 344 341 339 338 336 333 330 328 328 327 323 319 316 316 314 312 309 306 304 304 304 303 302 303
345 344 344 344 344 343 343 343 343 342 341 339 340 340 338 339 340 339 336 337 338 339 340 341 341 341 341 341 341 340 341 341 341 342 342 344 345 346 347 347 347 348 349 348 348 348 348 349 348 348 348 349 349 349 349 348 346 343 341 341 340 338 335 335 333 331 329 327 327 325 322 318 316 315 314 312 310 306 304 303 303 303 303 302 301
345 345 344 344 344 343 342 341 341 341 340 339 338 339 338 338 339 337 334 335 336 337 339 340 340 340 340 340 340 341 341 340 341 340 339 340 341 342 344 344 345 347 347 346 346 347 346 346 345 344 345 346 347 347 345 343 339 336 335 335 334 331 329 328 327 326 327 326 325 323 320 317 315 314 312 309 306 304 303 303 303 303 302 301 301
345 345 344 344 343 343 342 341 340 340 340 338 337 337 337 337 336 335 334 335 335 335 337 338 338 337 337 336 336 339 340 338 337 336 336 335 335 336 338 339 340 342 343 344 344 343 342 341 340 340 340 341 341 340 337 334 332 330 329 330 330 328 327 327 327 327 326 324 323 320 318 316 314 312 309 306 304 303 303 302 301 302 302 301 302
344 343 343 343 342 342 342 341 340 340 340 339 338 337 336 335 335 334 333 335 335 333 333 334 335 335 333 331 331 335 335 333 332 332 332 332 332 333 334 335 336 338 340 341 341 340 338 338 336 336 336 336 335 334 331 329 329 328 328 328 327 327 326 326 326 325 323 322 321 318 317 315 312 308 306 305 304 304 304 304 303 301 301 302 304
345 344 344 342 342 342 342 341 341 340 341 340 339 337 336 335 335 335 334 334 335 334 332 332 333 333 332 331 331 331 331 331 332 332 331 331 330 332 334 335 336 337 337 337 337 336 335 335 333 332 332 332 331 330 329 328 328 328 327 326 326 325 324 323 322 321 320 319 317 316 315 313 309 307 306 305 304 303 305 308 307 302 301 305 308
345 345 344 343 342 342 341 342 341 340 341 341 340 339 337 336 337 338 337 335 335 335 333 331 332 331 331 331 330 330 331 332 332 331 331 330 330 331 333 335 335 334 333 333 333 332 332 331 330 329 328 329 328 328 328 328 327 326 326 325 324 322 320 319 318 317 316 315 314 314 312 309 307 308 308 305 302 303 306 309 307 304 306 311 311
345 344 343 343 342 341 340 340 340 340 340 341 340 339 338 337 339 341 340 337 337 336 334 332 332 332 331 330 330 330 332 332 331 331 330 330 330 331 332 333 333 331 329 329 330 329 328 328 328 327 327 327 327 327 327 326 325 324 324 323 321 319 318 317 316 315 314 314 314 312 309 307 308 309 307 304 302 302 304 306 305 305 310 313 313
345 344 343 342 342 342 340 339 339 339 339 340 340 339 339 339 341 341 340 339 339 337 335 333 333 332 332 331 330 330 331 331 330 330 330 329 329 330 330 330 329 328 327 328 328 328 327 327 327 327 327 326 326 325 325 324 323 322 322 321 320 319 317 316 315 314 314 313 312 310 308 308 308 308 306 304 304 303 304 304 304 306 311 314 314
345 345 344 343 343 342 341 341 340 339 338 340 340 340 339 340 341 340 340 340 340 338 337 335 334 334 332 331 330 331 331 331 330 329 329 329 329 328 329 328 328 327 327 327 327 327 327 326 327 327 326 325 324 323 323 323 322 322 321 320 319 317 315 315 314 314 314 314 311 309 308 307 307 306 305 304 304 304 303 303 303 306 311 313 313
345 344 343 343 342 340 340 341 340 339 339 339 338 339 339 339 339 340 340 340 340 339 338 337 336 335 334 332 331 331 331 330 330 329 329 329 328 328 329 329 328 327 327 326 326 326 325 325 326 326 325 324 323 323 322 322 322 321 319 318 317 315 315 315 313 312 313 314 313 310 307 306 305 305 304 303 304 304 302 301 302 304 309 312 312
344 343 343 342 341 340 340 341 339 339 338 337 337 338 339 339 339 339 340 339 339 338 338 337 336 335 335 333 332 331 331 331 330 330 329 330 330 330 330 330 329 329 328 327 326 325 325 325 325 325 324 324 323 322 322 321 320 319 317 316 316 316 316 314 311 309 310 312 311 308 306 305 305 304 303 303 304 303 301 302 302 303 307 313 314
344 343 342 341 340 340 340 340 339 338 338 336 336 338 338 338 338 339 339 339 339 338 337 336 335 335 335 334 333 332 332 331 330 330 330 330 330 331 331 330 330 329 329 328 327 326 326 325 325 324 325 325 324 323 322 321 319 318 317 317 317 315 313 309 306 305 307 308 307 304 303 304 303 303 302 303 302 302 303 305 306 307 310 314 314
342 343 342 340 340 339 339 339 339 338 337 336 337 338 338 338 338 338 338 338 337 336 336 335 334 334 334 334 333 333 332 331 330 330 330 330 331 331 331 331 330 330 329 329 328 327 327 326 325 325 324 324 324 323 321 320 318 317 316 316 314 313 310 306 304 304 304 305 306 303 301 303 303 301 302 303 303 304 308 311 312 312 313 314 314
341 341 341 340 339 337 336 336 338 338 337 337 337 338 338 338 338 338 338 337 336 335 335 335 334 333 333 333 333 333 333 331 330 330 330 330 330 331 331 331 330 330 330 329 328 328 327 326 326 325 323 322 321 321 319 318 317 316 315 314 312 311 309 306 305 305 302 304 306 304 302 305 306 304 305 309 309 309 312 314 313 313 314 313 313
341 340 340 339 338 336 336 336 336 337 337 337 337 337 337 337 338 337 337 337 336 335 334 334 334 334 333 332 333 333 332 331 330 330 330 331 331 332 332 331 329 329 329 329 327 327 327 326 326 325 323 322 321 320 319 318 316 315 314 314 313 312 310 306 306 304 300 303 308 308 305 309 312 309 309 313 313 312 313 314 313 313 314 312 312
340 340 340 340 339 338 337 336 336 336 336 336 337 338 337 336 336 336 336 337 337 336 334 334 334 333 332 332 333 333 333 331 330 330 330 330 331 331 331 330 329 328 328 327 326 325 326 326 325 325 323 323 322 321 320 319 317 317 317 316 315 315 311 308 308 306 301 304 312 313 308 310 313 312 311 314 314 313 314 314 313 313 313 311 310
337 338 339 339 340 339 337 335 335 335 335 336 337 338 338 338 337 336 336 336 336 335 335 335 334 332 331 331 331 332 332 331 330 330 330 330 331 331 330 329 328 327 327 327 326 325 326 326 324 324 323 323 322 321 321 320 320 319 319 318 317 316 313 310 310 309 303 305 314 316 311 310 313 313 311 314 314 313 314 314 313 312 313 311 309
332 335 336 337 337 337 337 336 335 334 334 335 336 336 337 338 338 337 336 336 335 335 335 335 334 333 332 330 330 331 331 331 330 330 330 330 330 331 330 329 327 326 326 327 326 326 326 325 324 324 323 322 322 321 320 320 320 319 319 317 316 316 314 312 312 311 306 306 314 317 313 311 313 313 311 313 314 313 313 313 312 312 313 312 310
331 333 335 335 335 335 335 335 334 333 333 333 334 335 335 336 337 337 337 336 336 335 335 335 335 334 332 331 330 329 330 330 330 330 330 330 330 330 329 328 327 326 326 326 325 326 326 325 324 324 323 322 322 320 319 319 319 318 317 317 315 315 315 313 313 313 309 308 313 317 315 312 313 312 311 312 313 313 313 313 312 312 312 312 311
332 333 335 335 334 334 334 333 332 333 333 332 332 333 334 335 335 335 335 336 335 334 333 333 334 333 332 331 330 329 328 329 329 329 329 329 330 330 329 328 326 326 326 326 325 325 325 325 324 324 322 321 321 320 319 319 319 318 318 317 315 315 315 314 314 315 314 311 313 316 315 313 313 312 311 312 313 312 312 313 312 311 311 311 311
331 332 333 333 333 333 333 333 332 331 331 331 331 331 332 332 333 333 333 334 333 333 332 332 332 332 332 331 330 329 328 327 328 329 329 329 329 329 329 328 327 326 326 325 325 324 324 324 324 323 321 321 321 320 320 320 320 319 318 318 317 316 317 316 315 315 315 314 313 315 315 314 313 312 311 311 312 311 311 312 312 311 310 311 311
330 330 330 330 331 331 332 333 332 330 329 329 329 330 331 331 331 331 332 332 332 332 332 331 331 331 331 330 329 328 328 327 327 328 328 329 329 328 328 328 328 327 326 326 325 324 324 324 323 322 321 321 321 321 320 320 320 320 319 319 318 318 318 317 316 315 315 315 314 315 315 315 314 312 311 311 312 311 310 312 313 311 310 310 310
330 330 330 331 332 332 331 331 330 330 329 328 328 330 331 330 330 329 330 331 331 331 331 331 330 330 330 330 330 329 329 328 328 326 326 328 329 329 329 329 329 328 327 327 326 324 324 323 322 321 321 320 321 322 321 320 320 320 320 320 319 318 318 318 317 316 316 315 315 315 315 315 315 313 311 311 311 311 310 311 312 312 310 310 310
330 330 331 331 332 332 330 328 328 328 328 328 328 330 330 330 329 329 329 329 330 330 331 331 331 330 329 329 329 329 329 329 329 327 326 326 328 330 330 330 329 329 328 328 327 325 324 323 322 321 321 320 321 321 322 321 321 320 320 320 320 319 319 319 318 317 316 316 315 315 315 315 315 314 312 311 311 311 311 311 312 312 311 311 310
331 332 332 332 332 331 329 328 329 328 328 328 329 330 330 330 330 330 330 329 329 329 329 330 330 330 330 329 329 329 330 330 330 330 328 328 329 330 330 330 330 330 329 329 328 326 324 324 323 323 322 321 321 322 322 322 321 321 320 320 320 320 319 319 319 318 317 317 316 315 315 315 315 314 313 311 311 311 310 311 312 312 311 311 310
Wind_Speed
17 16 16 16 16 15 15 16 17 18 20 22 24 25 25 26 26 24 23 23 23 24 24 22 21 21 23 23 22 21 21 21 20 19 19 19 19 19 17 16 17 18 19 18 17 16 16 15 14 13 13 13 12 11 10 10 9 9 11 11 9 9 9 9 8 7 8 8 6 8 8 8 8 6 5 5 7 9 10 7 6 7 5 2 1
17 18 17 17 17 16 17 18 19 20 22 25 25 25 25 25 25 24 23 23 22 23 24 24 23 22 22 22 23 22 22 23 22 21 20 21 21 20 19 18 19 20 21 19 17 17 17 16 15 14 14 13 12 12 12 11 9 10 12 12 11 12 11 10 9 8 8 9 9 9 8 7 6 4 3 6 8 10 11 10 9 8 6 3 0
18 19 20 20 18 16 16 19 20 21 22 24 24 24 24 24 25 24 23 24 23 23 23 23 24 24 23 22 22 22 22 23 23 22 21 21 21 21 20 19 20 21 22 20 18 17 17 17 17 16 16 15 13 13 13 12 11 11 12 12 12 13 11 9 9 8 8 10 11 10 9 7 5 3 3 5 7 9 11 12 11 10 8 4 2
19 19 18 18 17 15 15 15 17 19 21 22 21 22 23 23 24 24 25 25 24 23 23 23 24 25 24 24 23 22 22 22 23 23 22 21 21 21 19 18 19 19 20 20 18 18 18 18 18 19 18 16 15 14 13 12 12 12 13 14 13 11 11 11 10 9 8 10 13 11 9 7 6 5 3 5 8 10 11 12 11 10 9 5 3
20 20 18 17 15 15 15 14 14 16 18 20 21 21 22 21 22 24 26 25 24 23 24 24 24 25 25 25 24 23 23 22 22 22 22 22 22 21 19 18 19 20 19 19 19 19 19 18 17 18 17 15 15 15 14 14 13 12 14 14 11 10 11 12 10 10 10 11 14 13 10 8 8 7 6 7 10 12 13 11 9 10 9 5 2
21 21 21 19 17 16 17 17 16 14 15 17 18 18 20 20 21 22 22 22 23 24 24 24 25 25 25 25 24 24 24 23 23 22 21 21 21 20 20 20 20 20 20 20 21 20 20 19 19 18 16 15 15 16 16 16 15 14 14 13 10 10 10 10 9 8 9 11 14 14 12 11 11 10 10 11 11 13 15 12 9 9 7 3 1
20 20 21 22 21 20 19 19 19 16 15 15 15 15 16 17 19 20 19 20 22 22 22 23 25 25 24 24 24 24 24 24 24 24 24 22 20 20 20 20 21 20 20 21 22 21 21 21 20 19 18 17 15 15 16 17 15 13 13 13 12 10 9 9 8 8 10 11 13 13 12 13 13 12 14 14 13 14 15 13 12 12 8 2 2
16 17 18 20 23 23 21 20 20 19 18 18 17 16 15 15 16 17 18 20 20 19 21 22 22 23 24 24 24 24 24 24 24 24 25 24 23 22 20 20 21 20 20 22 23 22 21 21 20 19 19 18 16 14 14 15 15 15 14 13 12 11 10 10 9 9 11 13 13 13 12 13 15 16 18 19 18 17 16 13 13 14 8 2 0
13 14 14 15 17 19 20 21 22 22 20 20 19 19 17 16 16 14 14 18 18 18 21 21 20 22 22 22 23 23 23 24 24 24 24 24 24 23 22 22 21 21 22 24 23 22 22 22 21 19 19 19 18 17 15 14 15 16 14 13 13 12 11 11 10 10 12 13 14 14 13 14 16 18 21 23 20 18 16 14 14 14 12 11 10
12 12 12 13 13 14 15 17 19 21 22 21 20 20 19 19 19 16 13 15 17 19 20 20 20 21 22 22 23 24 24 25 24 25 25 24 24 23 23 24 23 23 24 25 24 24 24 24 22 19 19 20 20 20 19 17 16 16 15 13 14 14 12 12 11 11 12 14 14 15 16 15 16 19 22 23 21 18 17 17 17 19 19 20 18
15 15 16 16 16 16 16 16 17 18 19 19 19 19 19 20 21 21 19 17 18 19 20 21 21 21 20 21 22 23 24 25 25 26 26 26 26 25 24 23 23 25 27 27 26 26 26 25 23 21 21 22 22 21 21 21 18 17 16 15 16 17 16 15 14 13 14 16 15 15 16 15 15 19 22 22 22 21 19 19 19 20 20 18 16
15 15 15 15 16 17 18 18 18 18 19 19 18 16 16 16 17 20 21 21 21 21 22 23 23 23 22 21 21 22 23 24 24 26 26 26 27 27 27 26 26 26 27 28 27 27 26 26 25 23 22 22 22 22 22 22 19 18 18 17 18 20 19 19 17 15 15 16 16 15 14 13 14 17 19 21 23 22 22 21 19 18 17 13 12
12 13 14 14 14 15 16 16 16 16 17 18 18 17 16 15 15 16 20 23 24 25 25 25 25 26 25 23 21 21 23 23 23 24 25 26 27 28 29 29 28 26 26 27 27 26 25 26 27 27 25 24 24 24 24 23 21 20 20 19 19 21 22 21 21 19 17 16 16 16 15 14 15 16 17 20 23 22 21 22 21 19 18 13 10
12 12 13 14 13 14 14 15 14 14 14 14 16 17 17 18 18 19 21 23 24 25 27 27 27 28 27 26 24 23 24 23 22 22 23 24 26 28 29 29 29 29 29 30 29 28 27 27 28 29 27 25 24 25 24 24 23 22 21 20 21 23 24 24 23 23 22 20 19 18 16 15 16 17 17 19 22 22 20 22 23 21 19 14 9
11 11 12 12 12 13 13 13 13 12 13 14 15 16 16 18 20 21 22 23 23 24 26 27 28 28 28 28 28 28 28 27 26 25 24 22 23 25 27 28 29 31 32 32 33 32 31 31 31 31 30 27 26 25 24 24 24 24 22 22 24 25 25 25 25 26 26 24 23 21 18 18 19 21 20 20 22 23 20 21 22 20 18 15 12
9 9 10 10 11 11 12 12 11 10 10 12 14 15 16 19 21 21 23 24 24 23 24 26 27 28 27 28 29 29 29 29 29 29 28 27 26 26 26 27 29 30 31 33 34 33 32 33 33 33 32 31 29 28 26 25 25 25 24 24 26 26 26 26 26 26 26 25 25 25 23 22 22 24 22 20 23 24 22 21 20 18 17 17 14
6 6 8 8 8 9 10 11 12 11 10 11 12 14 15 17 19 20 21 23 24 24 24 25 27 28 29 30 31 32 31 29 28 28 29 31 31 31 30 29 30 31 32 33 33 33 33 33 33 32 31 31 30 29 29 28 28 27 26 27 27 26 25 26 26 27 26 24 24 26 25 23 23 25 23 20 22 23 20 20 20 18 17 17 15
6 6 6 5 5 6 8 8 9 9 8 9 11 13 15 16 18 19 20 21 22 23 24 25 27 28 30 32 32 33 33 32 31 30 30 31 32 32 32 31 31 33 34 34 34 34 34 33 33 33 32 31 30 30 30 29 29 29 29 29 28 26 26 27 26 27 26 25 25 25 24 21 22 23 22 20 20 19 17 18 19 17 16 15 14
5 5 5 6 6 6 6 6 7 6 5 6 7 10 13 15 16 17 18 19 20 21 22 24 26 27 29 30 31 32 33 33 33 33 34 33 33 33 33 33 32 33 35 36 36 36 36 36 35 34 33 32 31 31 31 30 30 31 31 30 29 27 27 28 27 27 27 27 27 26 25 23 22 22 22 21 19 19 18 17 16 15 14 14 15
4 4 5 7 7 6 7 8 10 10 9 9 9 11 13 14 14 15 16 16 17 18 19 21 23 24 26 28 30 32 33 34 33 33 34 34 33 34 35 35 34 33 33 35 35 35 35 35 36 35 32 32 32 32 32 32 31 32 32 31 29 29 29 29 29 28 28 29 29 29 28 26 24 25 26 24 22 21 19 17 15 14 14 15 15
4 4 5 5 5 6 7 7 7 8 9 11 11 11 12 14 14 15 16 17 18 18 17 18 20 22 24 25 27 30 32 33 33 32 33 33 33 34 35 37 37 34 33 34 36 36 35 34 34 32 30 30 32 33 34 34 33 33 33 32 31 30 31 31 30 29 30 31 31 31 29 27 27 28 28 25 24 22 20 18 17 16 16 16 14
4 4 4 4 2 3 4 4 4 5 4 4 5 7 9 10 11 13 15 17 18 18 18 18 19 21 23 23 25 27 28 28 28 29 30 31 32 34 35 38 38 36 35 37 39 40 37 35 34 30 29 31 32 33 34 34 34 34 33 33 33 33 33 31 29 30 32 32 33 32 31 29 30 30 28 26 25 23 21 18 17 15 16 16 15
4 4 3 2 0 2 3 2 0 2 3 3 3 2 3 4 7 10 13 14 16 16 16 17 18 20 21 21 23 24 24 24 25 26 27 28 29 31 34 37 38 37 36 38 40 40 37 37 36 33 32 33 33 33 35 35 34 35 35 36 37 36 34 31 28 30 33 34 35 34 32 31 30 29 28 27 25 22 19 16 14 14 16 16 15
3 2 2 2 1 2 3 2 3 4 3 6 8 6 7 8 8 7 5 6 8 9 10 12 14 16 17 19 20 22 22 23 23 24 25 27 28 28 31 34 37 37 38 39 39 39 38 38 39 37 35 35 34 34 36 36 34 33 35 38 38 36 34 32 31 33 36 36 37 36 33 31 30 29 28 25 21 19 17 16 15 15 15 15 14
3 2 2 2 2 3 3 3 1 1 3 6 9 9 8 9 12 10 6 4 6 8 7 7 8 10 13 15 17 19 21 22 21 21 21 21 22 24 26 29 32 34 35 35 35 36 36 36 38 38 38 38 36 35 35 35 34 34 36 39 40 38 37 35 33 35 38 38 37 36 34 31 29 27 25 22 19 19 19 18 17 17 16 15 14
3 3 4 3 3 4 4 3 3 4 4 4 4 4 3 5 10 12 9 5 5 7 8 8 7 7 9 12 14 15 17 19 21 22 22 20 19 20 22 24 25 27 29 29 28 31 32 32 35 37 37 38 38 36 33 34 35 36 37 40 41 40 38 36 37 40 41 39 37 35 33 29 26 23 20 19 20 21 19 19 19 19 17 15 15
4 4 4 3 4 5 5 6 7 7 6 6 7 8 5 2 5 11 9 5 6 8 6 5 6 7 8 11 13 13 12 13 16 19 23 24 23 22 22 22 21 23 24 24 24 25 27 28 31 33 33 35 36 34 32 32 34 36 37 38 38 38 37 38 39 41 40 37 34 31 26 23 21 20 18 19 20 18 16 16 18 18 16 15 16
5 4 3 4 5 5 4 6 8 8 9 9 9 11 10 8 8 9 6 5 4 8 9 6 5 5 6 10 12 11 10 11 12 14 17 21 23 23 23 23 22 22 22 23 24 23 22 24 25 25 27 31 32 30 29 30 31 33 35 37 36 35 35 34 33 32 31 30 27 24 22 20 19 18 18 18 17 15 15 16 16 16 16 17 18
5 5 5 5 5 5 4 6 7 6 8 10 10 11 13 13 11 8 5 4 2 3 7 6 5 6 6 8 10 10 9 9 10 11 13 15 16 17 18 20 21 20 19 19 19 16 14 15 14 12 16 23 25 24 25 25 24 24 25 27 27 26 26 27 28 28 27 24 22 21 20 20 19 18 18 17 16 16 16 16 16 16 17 18 19
5 5 6 7 6 5 4 5 7 7 6 9 10 9 12 12 8 4 3 3 2 2 3 3 4 5 4 5 6 7 7 7 7 7 9 9 10 11 10 10 10 11 12 11 10 8 7 9 9 8 11 16 19 20 20 20 19 20 21 23 24 25 27 28 28 27 24 22 21 20 20 20 19 18 18 17 17 18 18 17 17 17 17 18 19
4 4 6 8 10 10 9 8 9 9 9 11 10 8 8 8 3 3 5 4 2 0 2 3 3 4 4 3 4 5 5 5 5 6 6 6 7 7 4 1 3 4 4 5 5 4 6 8 10 12 14 16 18 19 19 19 20 23 24 25 26 26 27 26 24 22 22 21 20 19 19 19 19 19 18 18 18 20 20 19 18 17 17 17 16
5 5 6 8 9 11 14 14 14 13 12 13 12 10 9 7 3 4 6 6 5 3 3 3 3 2 2 3 4 4 3 3 2 4 4 4 4 3 2 3 5 5 4 3 4 7 9 10 13 14 15 16 17 19 19 20 22 23 24 26 26 25 23 22 21 21 21 20 19 19 19 19 19 19 19 18 19 21 22 20 19 18 18 16 14
7 6 9 10 9 9 11 12 14 16 15 13 12 13 11 9 7 8 8 8 8 6 4 4 4 3 3 4 4 3 3 3 2 1 2 2 2 3 5 7 8 9 8 6 8 11 12 12 14 15 15 15 17 18 19 20 22 23 24 24 24 23 21 20 20 20 19 18 18 19 18 18 19 20 19 19 20 22 23 21 20 19 19 17 15
9 9 11 11 10 8 7 7 8 11 12 11 10 10 8 8 9 11 9 8 9 8 5 4 5 5 5 4 3 2 4 4 2 2 3 4 5 6 8 10 11 12 9 7 9 11 11 11 12 12 12 13 14 15 17 19 19 20 20 20 20 20 21 20 20 19 18 18 18 18 18 19 21 21 20 20 20 22 22 21 21 21 20 20 20
10 11 12 12 11 9 8 7 7 8 9 10 11 10 9 9 10 10 9 9 10 8 6 6 8 8 7 5 3 3 5 5 4 5 4 5 6 8 9 11 12 11 8 6 6 8 9 9 10 10 11 13 14 16 17 17 17 18 18 19 20 20 21 21 20 19 18 18 19 18 19 20 21 21 20 20 20 21 21 21 22 23 21 20 20
9 11 12 11 9 8 7 9 10 9 9 10 12 12 11 9 10 10 9 9 10 11 10 11 12 12 10 7 5 5 6 6 6 7 7 7 9 10 10 11 10 8 6 5 6 7 8 8 9 11 14 15 16 17 17 17 17 18 19 19 21 21 21 21 22 22 21 20 20 19 19 20 21 21 20 19 19 19 20 21 23 24 21 18 18
10 11 12 10 8 6 8 10 11 10 9 11 12 13 11 9 9 9 8 10 13 15 14 14 14 13 12 9 7 8 9 8 9 11 10 10 12 14 11 7 5 5 6 5 6 9 10 8 8 11 14 17 17 18 19 18 19 20 20 21 22 22 21 20 22 22 22 21 21 21 20 20 21 20 19 18 18 19 20 20 22 22 20 18 17
10 12 12 11 8 7 8 10 11 10 8 8 9 11 10 8 8 8 8 10 13 14 15 17 17 15 14 11 9 10 12 12 12 13 13 13 14 15 13 6 3 4 5 4 4 8 10 10 9 10 12 15 17 18 18 19 20 21 21 20 21 20 19 19 20 22 22 21 21 20 20 20 20 19 17 16 17 19 19 18 19 20 19 18 18
10 12 13 13 11 10 8 9 10 9 7 5 7 8 9 8 7 8 8 10 11 12 14 16 14 12 13 12 10 12 14 14 14 13 14 15 15 15 13 7 3 5 6 5 4 5 5 6 8 10 11 14 16 17 18 19 20 21 21 20 19 19 20 21 21 21 21 21 20 20 19 19 19 18 16 16 17 18 19 18 18 20 20 20 20
10 11 11 11 12 12 10 8 8 7 6 5 6 6 7 8 8 8 8 9 10 11 12 11 10 11 13 11 10 12 13 14 14 13 15 17 15 12 10 7 6 6 6 5 5 8 8 8 9 10 12 15 16 17 18 19 19 20 20 20 19 19 21 22 21 19 20 21 20 19 18 18 17 17 17 17 17 18 19 19 20 20 21 22 22
10 10 9 9 9 9 7 7 7 7 7 7 7 6 7 8 8 8 9 9 11 11 9 8 10 14 15 12 10 12 12 13 15 15 15 15 10 5 7 9 9 8 7 7 8 10 13 13 13 13 13 15 16 16 17 18 19 19 20 20 19 19 19 20 20 19 19 21 20 19 18 19 19 18 19 19 18 18 20 21 21 21 22 23 23
10 9 9 9 8 8 6 6 9 11 11 10 8 7 6 7 8 9 9 10 11 10 8 8 11 13 15 13 10 12 12 11 14 17 15 11 6 6 8 9 9 10 9 9 10 10 11 13 14 14 15 15 16 16 17 17 18 19 19 19 19 19 19 19 19 18 19 21 21 19 19 20 20 20 20 20 20 20 21 21 22 22 22 22 22
13 10 9 9 10 9 6 5 7 11 13 13 10 8 7 7 7 7 8 8 9 10 10 11 13 13 14 12 9 12 13 11 11 15 15 11 9 9 9 7 8 11 10 9 11 10 11 13 14 14 15 17 17 17 18 18 19 20 19 19 20 19 19 19 19 18 18 22 22 20 19 21 21 21 21 22 21 22 22 22 22 22 22 20 20
13 11 10 10 10 10 9 9 10 11 12 13 14 12 10 8 7 8 8 7 8 9 10 12 15 15 13 11 9 9 13 13 11 11 13 12 11 12 11 9 9 12 11 10 11 11 11 14 15 15 16 18 18 18 19 20 20 21 20 19 20 21 20 19 20 19 19 22 23 22 20 21 23 23 23 23 23 23 23 23 23 22 21 20 20
10 11 10 10 10 10 10 11 13 12 11 13 14 13 12 11 9 10 10 9 9 10 10 12 17 18 15 13 12 11 11 13 13 11 11 13 14 15 13 11 10 13 12 12 12 12 12 15 16 16 17 19 19 19 20 20 20 21 20 19 20 22 21 19 19 19 19 21 24 23 22 23 24 24 24 24 25 24 24 24 24 23 22 21 21
9 10 10 11 11 11 10 11 13 13 13 14 14 12 12 12 11 11 11 11 10 10 9 10 16 19 17 15 13 12 13 13 14 11 9 11 13 14 12 11 12 14 14 13 13 14 14 16 17 17 18 19 20 20 20 20 19 19 18 18 20 21 20 19 20 21 20 20 23 24 24 23 24 25 24 25 26 26 24 24 24 24 24 23 22
9 10 10 10 12 13 12 11 12 12 13 15 15 13 13 13 13 12 12 12 12 11 9 9 14 19 18 15 14 14 15 13 13 12 10 11 11 11 12 13 14 15 15 15 16 17 18 19 20 19 19 20 21 20 20 20 20 19 19 19 19 20 20 19 20 22 22 21 22 24 24 24 24 25 24 24 26 26 24 23 24 24 25 24 24
9 11 11 11 12 14 13 12 12 12 12 13 13 12 11 11 11 11 11 11 12 13 12 10 12 16 17 15 14 15 16 15 12 11 14 15 14 14 15 17 17 17 16 17 19 20 21 22 22 20 20 21 22 22 21 21 21 20 21 21 21 21 21 20 20 22 23 22 21 23 24 24 25 25 25 25 26 26 25 24 25 25 25 25 25
11 12 12 12 12 13 13 13 13 13 12 11 12 12 11 10 9 9 8 8 8 10 11 12 13 15 16 16 15 16 17 18 17 12 13 17 16 16 17 19 19 19 18 18 19 21 21 22 22 22 22 23 24 24 23 23 22 22 22 22 22 22 23 22 21 22 24 23 22 23 24 24 24 24 24 25 26 26 25 25 25 25 26 26 25
10 11 11 11 11 11 12 13 14 14 13 12 13 14 14 14 14 12 11 9 7 6 7 9 11 12 13 14 14 15 18 20 18 15 12 13 15 16 17 19 19 20 20 19 19 20 21 22 23 23 24 24 25 26 25 25 24 23 24 24 23 23 24 24 23 23 24 24 23 23 24 25 25 24 24 25 27 26 26 26 26 25 26 26 25
7 8 8 8 9 9 10 10 11 11 11 12 14 15 16 17 17 17 15 12 11 9 9 9 10 11 11 12 11 10 12 14 14 13 13 13 14 16 18 19 20 20 21 22 22 22 22 23 24 25 25 25 26 27 27 27 26 25 25 25 24 24 25 25 25 25 26 25 24 23 24 25 25 25 25 26 27 27 27 27 26 26 26 26 26
Wind_Direction
195 200 205 210 215 217 215 211 208 207 206 207 209 209 209 210 211 212 214 216 217 218 219 218 217 218 219 219 219 220 223 225 225 228 234 238 239 237 233 235 245 254 256 253 242 238 247 253 250 250 252 255 260 263 266 267 265 258 258 261 254 241 240 242 238 211 188 187 199 206 212 229 240 250 248 207 188 190 189 198 216 208 200 206 158
198 199 199 203 212 214 210 207 207 209 208 208 207 206 209 212 211 211 214 216 217 218 220 221 220 219 222 223 222 222 224 228 229 228 230 236 238 237 232 229 233 241 246 250 246 238 237 243 246 248 249 252 258 262 262 262 263 261 259 255 247 239 235 235 237 227 201 184 191 205 211 226 248 251 213 188 188 191 191 202 214 207 202 212 250
201 202 200 199 203 210 211 207 204 205 209 211 208 206 209 211 210 212 216 217 219 220 221 222 223 223 225 226 226 226 226 229 231 230 230 234 238 238 235 231 233 239 243 246 248 244 239 239 244 250 252 251 254 256 256 256 251 252 257 256 250 242 231 228 234 234 213 189 191 204 207 217 253 268 191 179 182 185 194 209 218 211 203 212 252
203 203 203 202 199 202 212 214 209 208 209 211 211 209 211 211 210 213 216 215 217 222 223 222 224 225 223 223 226 227 227 227 230 231 230 230 234 241 243 237 233 238 245 248 249 247 247 247 247 252 255 257 259 254 249 249 243 243 251 254 250 235 221 226 231 229 224 203 193 198 205 220 258 273 227 188 178 183 200 215 217 207 203 213 243
206 203 204 205 201 201 208 214 216 218 215 211 211 213 215 215 215 220 221 216 216 222 222 221 224 226 224 223 225 226 225 225 228 230 229 228 230 236 242 242 237 236 240 243 243 247 253 257 255 254 256 260 261 254 246 244 241 240 245 248 246 231 227 235 227 218 227 212 194 195 204 220 244 250 231 201 184 189 207 219 212 203 203 203 226
211 210 209 208 204 203 206 208 210 217 224 221 216 217 219 218 221 228 229 221 220 223 222 221 224 227 227 225 226 228 228 225 226 229 229 231 234 235 236 239 241 242 242 243 244 247 253 258 261 262 263 261 258 255 251 250 250 245 242 246 249 240 237 236 217 216 232 216 201 203 206 211 222 220 208 206 205 204 207 207 196 186 184 168 94
220 220 220 217 213 210 209 210 209 208 215 219 219 221 224 224 224 226 228 225 223 225 224 224 225 226 228 228 227 229 231 229 229 230 230 231 234 238 238 239 241 242 241 243 246 250 254 257 260 262 262 262 262 261 259 260 261 254 245 246 244 235 234 229 217 226 232 214 208 213 210 207 211 209 203 208 214 211 206 200 181 161 146 107 13
229 224 223 222 221 222 221 218 215 210 207 209 213 215 219 225 226 225 229 229 228 228 226 227 229 228 229 231 231 231 233 233 232 232 233 232 231 234 237 239 241 242 241 241 242 245 250 253 257 259 260 261 263 262 258 257 258 255 252 248 240 231 231 230 224 223 222 214 211 215 211 200 197 200 202 203 204 202 204 207 186 161 144 117 328
231 226 225 225 226 227 228 226 225 223 221 221 223 221 218 219 221 224 230 231 232 234 231 230 234 234 232 232 233 233 233 235 235 234 235 236 235 235 235 237 239 240 244 247 245 246 249 250 251 255 258 260 262 262 261 261 261 258 254 247 242 237 232 233 232 217 212 214 213 210 205 197 198 201 201 203 206 202 198 201 184 160 156 167 177
228 228 233 237 237 233 231 230 229 230 233 235 237 237 234 229 225 225 229 231 232 235 233 231 234 238 238 236 235 235 234 234 236 237 237 238 238 237 237 238 239 239 243 248 249 250 254 255 251 249 252 255 257 258 263 268 267 259 254 252 253 251 243 242 240 222 216 223 219 208 202 203 210 212 206 207 208 199 194 195 180 166 172 183 188
238 240 243 243 241 239 239 240 240 241 242 241 241 242 241 238 234 232 233 236 235 234 232 233 235 237 239 240 238 236 236 236 238 239 240 240 239 238 237 238 239 240 242 246 249 252 255 257 255 251 249 251 253 256 261 264 261 255 252 253 253 252 251 249 243 230 226 231 227 216 210 211 217 217 213 209 201 195 199 198 184 179 187 194 199
240 242 242 238 235 237 241 244 246 248 249 247 246 248 248 247 244 240 239 239 236 235 233 232 234 235 236 238 239 239 238 239 241 242 242 241 240 239 239 242 244 243 243 246 250 252 254 257 257 254 250 251 253 255 258 260 260 256 254 252 250 252 253 251 248 238 230 231 231 225 220 218 215 211 210 207 198 196 204 199 188 192 196 193 198
228 231 232 231 230 232 236 240 243 247 248 248 248 249 251 252 251 250 247 241 237 236 236 235 235 236 236 236 239 242 241 241 243 245 245 245 243 242 243 246 246 246 247 250 253 253 254 256 257 255 253 253 255 256 256 257 259 258 257 255 254 253 251 250 249 243 236 234 231 228 228 227 217 206 203 202 196 193 198 194 191 198 199 194 200
228 231 231 231 233 235 236 236 238 241 244 247 248 248 248 250 252 253 252 249 244 241 241 241 240 239 239 239 240 241 241 241 243 246 247 248 248 248 247 247 246 247 250 253 253 254 254 254 253 253 253 253 254 255 254 254 255 257 259 259 256 252 247 244 242 239 239 237 231 230 232 227 215 204 199 201 199 197 196 193 193 200 203 204 206
230 231 233 234 236 240 242 240 240 244 248 251 252 252 253 256 256 255 255 255 253 249 245 244 243 242 242 243 244 243 242 242 242 242 242 244 249 251 251 249 247 248 251 252 252 253 253 253 252 252 252 252 252 252 252 252 255 258 259 257 253 249 244 242 240 238 238 235 232 231 226 216 208 203 198 199 202 206 206 199 198 204 208 210 209
229 230 236 240 236 236 240 241 242 246 250 254 256 256 256 258 258 257 256 256 256 254 249 247 246 244 243 245 247 247 245 243 243 244 243 243 245 248 251 252 249 247 250 252 254 254 254 255 254 253 254 254 253 252 252 251 253 256 255 253 251 249 245 243 242 240 238 235 233 231 225 215 208 203 203 204 206 209 209 203 202 207 208 209 209
223 223 233 243 245 243 247 249 249 249 251 255 263 265 262 260 260 262 262 261 259 257 254 252 250 249 247 248 250 251 250 248 246 245 243 243 244 244 246 250 251 249 250 252 254 255 255 255 255 255 255 254 253 254 254 252 251 252 250 249 250 251 247 244 241 238 236 234 230 228 225 216 204 203 210 214 210 208 205 199 199 202 203 207 211
217 213 217 232 244 248 250 252 257 261 257 249 254 262 264 261 260 263 265 263 259 257 256 255 253 251 249 250 252 255 256 255 251 247 244 244 245 244 244 247 250 252 252 252 251 253 254 254 255 257 257 256 254 254 254 251 248 247 247 249 250 250 247 244 240 235 230 225 221 220 218 209 200 203 208 207 201 197 196 198 199 202 209 215 215
206 206 212 220 223 231 238 236 237 242 244 238 237 247 256 259 259 262 265 265 263 261 260 258 257 256 254 253 254 255 257 257 254 252 250 249 248 247 246 245 247 249 251 251 251 251 253 254 255 257 257 256 254 253 252 250 248 246 247 248 247 248 247 243 239 234 226 216 211 209 206 201 199 200 198 191 187 189 194 202 206 209 216 217 213
211 212 217 219 213 213 219 219 218 214 211 218 223 229 242 251 257 262 265 268 269 267 265 264 263 262 262 259 257 257 258 258 257 255 254 253 252 250 247 244 244 245 248 250 250 250 251 253 254 256 256 253 252 252 249 248 246 245 246 247 247 250 248 240 235 232 224 214 207 203 202 201 198 196 191 186 187 191 195 200 204 210 215 213 210
219 215 219 223 210 210 219 218 218 214 212 219 222 226 236 243 248 256 259 260 264 264 262 262 263 263 263 262 261 261 261 261 261 258 257 255 254 252 249 246 243 241 242 245 247 249 250 251 253 254 252 249 249 249 248 247 245 244 245 248 249 250 248 237 228 223 218 210 204 200 200 200 197 193 191 188 189 193 193 196 202 205 208 210 207
231 227 229 236 215 216 226 214 208 216 218 222 212 212 230 239 242 248 252 253 257 260 259 260 262 264 264 264 264 265 264 264 265 264 261 258 255 255 254 252 249 245 242 242 245 248 251 252 252 251 250 249 248 247 247 246 243 241 243 243 241 242 243 237 226 219 214 207 203 201 199 197 194 191 189 188 190 194 196 199 203 202 201 205 207
241 241 238 247 235 249 254 249 33 40 31 339 284 243 267 289 272 258 255 257 260 263 264 264 263 265 266 265 266 266 266 266 266 265 264 261 257 255 255 255 255 254 251 248 247 248 250 250 250 247 246 247 247 247 249 248 242 239 239 238 237 237 237 234 226 219 213 206 203 202 198 195 192 187 185 188 192 197 198 196 195 195 196 199 205
232 227 245 269 259 261 281 328 17 32 8 294 299 343 17 357 332 307 282 277 278 274 271 269 268 268 269 269 270 270 269 269 267 267 266 261 257 256 257 257 257 257 255 254 253 250 248 248 248 246 243 244 245 246 247 245 241 238 236 235 235 235 233 229 222 217 211 206 204 202 196 192 188 184 186 192 194 194 192 187 186 192 195 200 207
228 199 222 264 269 276 297 312 307 181 209 264 304 348 7 345 333 336 351 5 343 326 311 292 282 277 272 272 275 275 272 270 268 269 268 261 256 258 260 260 260 260 259 258 257 254 250 248 248 247 245 244 245 246 245 243 240 238 235 233 231 228 225 220 213 209 205 200 198 194 186 182 182 185 190 191 187 188 187 184 187 193 195 199 203
235 214 217 233 244 244 251 264 264 250 231 243 279 312 344 333 313 307 311 321 311 309 316 317 310 297 288 289 291 288 280 272 268 270 272 271 269 268 267 265 264 265 267 265 260 256 254 250 246 245 245 244 244 246 246 240 231 223 220 221 222 220 217 212 206 202 196 188 182 177 174 175 181 188 190 186 185 189 187 184 190 195 195 196 196
228 234 234 232 235 239 230 216 220 230 230 215 212 212 193 166 259 276 292 298 256 242 244 280 295 293 301 304 300 296 293 283 274 273 273 271 269 270 270 269 266 264 268 272 269 265 264 259 252 248 248 247 243 241 240 232 219 208 205 208 209 207 204 200 196 192 186 179 174 172 175 182 187 188 188 187 187 188 184 186 193 194 191 192 194
216 234 247 236 234 248 247 216 205 215 233 244 244 235 219 209 235 265 302 335 277 221 201 209 244 254 277 295 290 284 287 285 280 282 281 275 270 268 265 265 265 263 265 271 273 273 273 268 260 250 243 238 232 226 220 214 205 197 195 196 195 191 188 186 183 179 177 176 176 179 185 189 188 187 189 188 183 180 181 187 194 193 189 189 190
217 224 233 242 250 256 240 214 210 225 256 273 274 253 235 233 247 269 305 359 11 190 195 206 217 217 245 285 283 271 274 283 286 290 290 288 286 280 271 265 262 262 264 266 269 273 271 264 256 244 232 225 217 208 200 192 184 178 179 184 188 186 183 181 180 180 181 183 186 187 187 186 186 188 190 186 179 178 180 182 187 190 187 185 186
224 218 218 225 235 236 219 218 227 234 259 280 279 258 238 235 244 280 323 353 33 135 179 192 200 216 253 298 287 263 266 287 305 307 304 306 309 303 291 274 260 258 260 260 260 261 250 236 222 205 204 206 201 193 186 180 177 177 178 181 183 181 179 180 182 183 183 187 190 188 185 186 186 187 188 185 180 177 176 179 187 191 186 184 187
233 222 219 222 225 218 206 211 222 223 236 255 261 256 235 222 226 351 348 342 350 291 191 175 187 220 257 287 288 274 270 280 303 313 316 324 327 320 312 264 204 211 231 244 239 218 201 194 184 179 182 187 185 182 179 181 183 183 180 177 176 177 179 181 183 183 183 184 183 181 183 187 185 184 187 186 181 178 178 183 191 191 183 183 189
235 223 225 241 244 227 215 215 214 213 226 241 249 256 253 239 256 339 336 331 326 288 225 195 190 215 258 280 288 285 270 259 286 309 326 341 339 340 37 126 148 144 138 159 174 165 165 170 171 172 177 180 180 180 182 183 182 179 177 175 175 177 178 177 177 179 179 178 178 180 185 186 182 182 188 188 186 186 187 190 193 187 175 177 191
230 225 231 249 260 245 235 234 224 218 223 233 244 255 256 252 272 294 300 311 313 293 251 220 215 233 268 287 291 277 243 229 251 321 15 54 80 96 106 119 124 118 115 130 146 149 156 166 170 172 177 181 183 184 182 179 176 174 175 175 173 172 173 175 176 176 176 178 182 183 183 181 181 185 191 193 195 197 197 196 195 184 172 176 192
229 229 233 244 259 266 271 275 254 233 227 228 238 244 234 232 258 271 276 290 299 293 270 227 219 239 258 266 272 246 215 204 172 99 94 102 108 111 114 113 110 106 108 126 142 146 154 166 169 169 173 175 177 178 175 172 172 173 173 173 173 172 173 175 174 175 178 182 183 180 178 181 185 190 195 199 201 203 204 202 195 184 177 182 193
235 240 241 243 253 266 272 276 275 260 238 232 239 238 225 224 238 250 264 280 281 274 265 248 243 249 252 246 237 219 203 187 141 113 115 118 113 109 105 100 94 90 88 96 116 130 145 159 161 158 160 162 164 168 169 170 173 175 175 175 174 174 176 177 178 179 182 183 182 180 183 187 191 194 201 205 206 205 206 203 196 188 184 188 197
236 246 254 256 260 264 256 257 268 270 256 251 247 236 228 228 227 230 247 260 250 247 263 273 265 253 243 237 229 211 198 178 135 113 107 105 100 89 79 79 86 92 93 96 109 120 129 144 154 158 162 165 167 170 173 174 176 177 177 177 178 180 183 187 188 186 181 179 182 185 188 192 195 200 206 208 205 205 203 200 196 193 188 189 195
238 242 252 263 275 271 254 257 271 279 277 272 259 242 233 228 223 227 242 249 246 251 265 275 270 252 235 230 223 205 191 170 139 123 117 113 105 98 92 89 101 121 128 131 134 137 142 153 163 169 173 175 174 176 178 179 178 177 178 182 188 191 192 193 192 187 182 183 189 193 194 197 200 204 208 207 204 203 200 197 197 195 188 189 194
247 243 241 243 253 263 264 270 281 290 292 281 259 246 240 232 231 244 252 246 249 261 274 280 276 256 233 223 215 199 189 179 165 152 143 136 127 122 127 139 150 142 152 165 150 147 156 168 175 178 181 182 182 184 184 183 182 182 184 190 197 200 197 194 193 191 189 191 198 202 202 203 206 207 208 207 204 199 194 193 194 191 188 191 197
253 247 237 230 231 241 258 274 287 300 307 288 254 243 239 234 237 252 257 251 254 268 280 285 281 258 237 227 215 203 199 193 186 172 153 144 140 136 140 157 191 183 185 196 179 152 151 165 178 184 184 182 185 188 188 188 189 190 193 198 201 199 196 197 200 201 196 195 203 209 206 204 208 207 202 200 199 191 186 190 194 193 192 195 195
246 255 252 238 234 242 255 267 281 296 301 287 272 262 253 248 244 243 248 259 268 275 283 289 282 268 261 249 221 211 210 201 190 178 161 153 148 141 143 168 206 207 195 193 182 168 166 180 201 205 191 182 186 190 190 192 195 195 198 204 206 203 202 205 209 211 202 197 205 211 204 198 203 200 189 191 196 190 187 193 198 198 198 198 194
236 248 256 248 243 252 259 259 269 284 288 283 284 283 275 270 262 247 243 255 265 270 278 279 269 273 283 279 240 216 213 204 192 183 169 158 157 162 164 175 195 204 196 195 195 184 180 190 206 208 195 188 192 197 196 196 198 199 203 207 208 209 210 211 215 218 208 197 203 211 201 193 197 196 187 189 197 195 192 198 201 200 203 203 197
271 262 261 263 269 274 266 251 264 280 288 286 282 274 267 270 267 256 251 254 257 257 256 255 262 281 300 294 250 211 204 204 198 193 183 169 175 200 181 173 197 217 217 217 217 206 201 207 209 202 197 197 198 198 198 199 199 202 205 205 205 211 214 212 215 221 208 194 200 212 203 192 196 198 190 191 197 197 196 199 201 202 207 209 203
307 303 296 296 299 296 286 272 273 280 286 290 290 280 269 267 264 262 257 249 249 254 252 250 262 288 310 303 257 213 203 202 200 205 206 196 186 191 183 178 215 234 234 233 228 216 210 216 213 201 198 203 200 196 198 200 199 202 207 206 204 210 215 211 213 221 209 192 197 213 208 196 198 200 194 193 198 198 198 200 201 203 207 209 204
311 312 308 306 306 302 297 297 292 285 285 290 291 288 283 275 265 264 261 245 243 254 253 247 256 276 301 311 292 251 224 209 196 207 219 213 200 200 198 196 221 236 231 223 225 222 214 215 214 206 202 207 207 203 203 205 206 208 213 212 207 210 216 213 212 221 214 195 197 211 210 199 201 202 196 195 200 199 198 201 201 201 204 204 201
306 306 299 295 294 292 292 299 302 303 300 293 288 288 290 285 273 270 271 264 254 252 248 246 255 269 287 301 303 295 269 235 210 205 221 222 211 206 199 193 213 237 239 227 225 229 224 218 217 214 210 212 214 210 208 211 214 215 218 218 212 213 220 218 213 220 220 201 198 209 212 204 204 205 199 198 201 200 199 203 203 200 201 201 201
289 294 297 300 299 296 296 303 311 317 317 306 295 289 286 283 279 276 275 273 268 264 259 253 255 264 279 290 293 302 297 263 226 212 232 240 222 209 207 209 219 233 244 242 231 226 222 219 220 222 219 217 219 216 210 213 218 218 217 219 217 218 224 220 212 218 222 209 201 209 213 208 208 210 204 202 205 203 200 205 207 204 203 203 201
276 282 289 297 302 303 305 306 307 309 313 312 309 302 292 286 287 285 277 271 267 266 267 266 263 268 278 286 289 300 305 283 240 220 239 262 254 235 230 234 232 230 236 240 234 227 225 224 225 225 223 221 222 219 213 213 218 217 214 216 218 221 225 221 212 216 224 217 207 211 215 213 212 213 208 207 210 208 203 206 211 208 206 206 203
281 284 285 288 293 298 304 309 305 301 302 304 301 297 290 285 284 281 274 271 270 267 263 262 268 274 281 285 285 292 301 299 277 241 228 239 251 249 238 236 237 233 231 237 238 234 231 229 226 224 224 224 226 225 219 215 217 218 217 217 219 221 224 222 215 216 224 223 213 212 216 216 217 217 212 211 215 212 205 206 212 211 209 209 206
282 283 283 284 285 288 294 301 300 296 297 297 289 282 281 284 285 280 269 263 267 270 267 261 261 268 277 283 284 283 286 294 299 282 238 224 234 246 245 240 238 232 229 237 243 239 235 233 229 224 224 226 229 229 226 221 219 220 221 221 220 220 224 226 219 217 223 226 219 214 216 219 221 220 216 215 217 215 206 206 212 212 210 211 209
294 292 289 288 290 289 289 292 292 288 285 284 281 278 279 283 288 291 285 268 253 255 264 264 260 262 269 275 280 279 278 281 291 296 277 245 237 243 247 248 245 237 231 235 242 240 236 236 234 228 225 226 229 230 230 227 224 222 222 224 224 222 224 227 225 221 224 228 223 217 216 219 221 221 218 217 219 216 208 207 211 213 211 212 211
326 321 308 296 293 295 297 302 306 304 295 286 280 279 277 274 274 278 280 274 265 264 268 268 264 261 259 259 260 266 268 265 264 273 280 272 259 252 250 250 251 246 239 237 240 240 237 237 237 234 229 227 228 231 232 231 228 226 224 225 226 226 226 229 231 230 230 232 230 222 217 218 221 221 218 218 219 217 211 209 211 213 214 215 214